owner,sensor,date,latitude,longitude,air_pressure(mBar),qcFlag 
TABS,ioos:station:wmo:42047:1,2009-08-01T00:30:00Z,27.8966,-93.5973,1003.53,1111122 
TABS,ioos:station:wmo:42047:1,2009-08-01T01:00:00Z,27.8966,-93.5973,1003.97,1111122 
TABS,ioos:station:wmo:42047:1,2009-08-01T01:30:00Z,27.8966,-93.5973,1004.14,1111122 
TABS,ioos:station:wmo:42047:1,2009-08-01T02:00:00Z,27.8966,-93.5973,1004.49,1111122 
TABS,ioos:station:wmo:42047:1,2009-08-01T02:30:00Z,27.8966,-93.5973,1004.85,1111122 
TABS,ioos:station:wmo:42047:1,2009-08-01T03:00:00Z,27.8966,-93.5973,1004.86,1111122 
TABS,ioos:station:wmo:42047:1,2009-08-01T03:30:00Z,27.8966,-93.5973,1005.16,1111122 
TABS,ioos:station:wmo:42047:1,2009-08-01T04:00:00Z,27.8966,-93.5973,1005.22,1111122 
TABS,ioos:station:wmo:42047:1,2009-08-01T04:30:00Z,27.8966,-93.5973,1005.53,1111122 
TABS,ioos:station:wmo:42047:1,2009-08-01T05:00:00Z,27.8966,-93.5973,1005.24,1111122 
TABS,ioos:station:wmo:42047:1,2009-08-01T05:30:00Z,27.8966,-93.5973,1004.81,1111122 
TABS,ioos:station:wmo:42047:1,2009-08-01T06:00:00Z,27.8966,-93.5973,1004.55,1111122 
TABS,ioos:station:wmo:42047:1,2009-08-01T06:30:00Z,27.8966,-93.5973,1004.43,1111122 
TABS,ioos:station:wmo:42047:1,2009-08-01T07:00:00Z,27.8966,-93.5973,1004.46,1111122 
TABS,ioos:station:wmo:42047:1,2009-08-01T07:30:00Z,27.8966,-93.5973,1004.33,1111122 
TABS,ioos:station:wmo:42047:1,2009-08-01T08:00:00Z,27.8966,-93.5973,1004.11,1111122 
TABS,ioos:station:wmo:42047:1,2009-08-01T08:30:00Z,27.8966,-93.5973,1004.34,1111122 
TABS,ioos:station:wmo:42047:1,2009-08-01T09:00:00Z,27.8966,-93.5973,1004.53,1111122 
TABS,ioos:station:wmo:42047:1,2009-08-01T09:30:00Z,27.8966,-93.5973,1004.95,1111122 
TABS,ioos:station:wmo:42047:1,2009-08-01T10:00:00Z,27.8966,-93.5973,1004.95,1111122 
TABS,ioos:station:wmo:42047:1,2009-08-01T10:30:00Z,27.8966,-93.5973,1004.91,1111122 
TABS,ioos:station:wmo:42047:1,2009-08-01T11:00:00Z,27.8966,-93.5973,1004.85,1111122 
TABS,ioos:station:wmo:42047:1,2009-08-01T11:30:00Z,27.8966,-93.5973,1005.04,1111122 
TABS,ioos:station:wmo:42047:1,2009-08-01T12:00:00Z,27.8966,-93.5973,1005.26,1111122 
TABS,ioos:station:wmo:42047:1,2009-08-01T12:30:00Z,27.8966,-93.5973,1005.37,1111122 
TABS,ioos:station:wmo:42047:1,2009-08-01T13:00:00Z,27.8966,-93.5973,1005.3,1111122 
TABS,ioos:station:wmo:42047:1,2009-08-01T13:30:00Z,27.8966,-93.5973,1005.6,1111122 
TABS,ioos:station:wmo:42047:1,2009-08-01T14:00:00Z,27.8966,-93.5973,1005.52,1111122 
TABS,ioos:station:wmo:42047:1,2009-08-01T14:30:00Z,27.8966,-93.5973,1005.65,1111122 
TABS,ioos:station:wmo:42047:1,2009-08-01T15:00:00Z,27.8966,-93.5973,1005.8,1111122 
TABS,ioos:station:wmo:42047:1,2009-08-01T15:30:00Z,27.8966,-93.5973,1005.76,1111122 
TABS,ioos:station:wmo:42047:1,2009-08-01T16:00:00Z,27.8966,-93.5973,1005.99,1111122 
TABS,ioos:station:wmo:42047:1,2009-08-01T16:30:00Z,27.8966,-93.5973,1005.9,1111122 
TABS,ioos:station:wmo:42047:1,2009-08-01T17:00:00Z,27.8966,-93.5973,1005.68,1111122 
TABS,ioos:station:wmo:42047:1,2009-08-01T17:30:00Z,27.8966,-93.5973,1005.2,1111122 
TABS,ioos:station:wmo:42047:1,2009-08-01T18:00:00Z,27.8966,-93.5973,1004.79,1111122 
TABS,ioos:station:wmo:42047:1,2009-08-01T18:30:00Z,27.8966,-93.5973,1004.57,1111122 
TABS,ioos:station:wmo:42047:1,2009-08-01T19:00:00Z,27.8966,-93.5973,1004.14,1111122 
TABS,ioos:station:wmo:42047:1,2009-08-01T19:30:00Z,27.8966,-93.5973,1003.98,1111122 
TABS,ioos:station:wmo:42047:1,2009-08-01T20:00:00Z,27.8966,-93.5973,1003.51,1111122 
TABS,ioos:station:wmo:42047:1,2009-08-01T20:30:00Z,27.8966,-93.5973,1002.68,1111122 
TABS,ioos:station:wmo:42047:1,2009-08-01T21:00:00Z,27.8966,-93.5973,1002.16,1111122 
TABS,ioos:station:wmo:42047:1,2009-08-01T21:30:00Z,27.8966,-93.5973,1001.75,1111122 
TABS,ioos:station:wmo:42047:1,2009-08-01T22:00:00Z,27.8966,-93.5973,1001.24,1111122 
TABS,ioos:station:wmo:42047:1,2009-08-01T22:30:00Z,27.8966,-93.5973,1000.93,1111122 
TABS,ioos:station:wmo:42047:1,2009-08-01T23:00:00Z,27.8966,-93.5973,1001.17,1111122 
TABS,ioos:station:wmo:42047:1,2009-08-01T23:30:00Z,27.8966,-93.5973,1001.63,1111122 
TABS,ioos:station:wmo:42047:1,2009-08-02T01:00:00Z,27.8966,-93.5973,1002.79,1111122 
TABS,ioos:station:wmo:42047:1,2009-08-02T01:30:00Z,27.8966,-93.5973,1003.21,1111122 
TABS,ioos:station:wmo:42047:1,2009-08-02T02:00:00Z,27.8966,-93.5973,1003.65,1111122 
TABS,ioos:station:wmo:42047:1,2009-08-02T02:30:00Z,27.8966,-93.5973,1004.13,1111122 
TABS,ioos:station:wmo:42047:1,2009-08-02T03:00:00Z,27.8966,-93.5973,1005.96,1111122 
TABS,ioos:station:wmo:42047:1,2009-08-02T03:30:00Z,27.8966,-93.5973,1006.52,1111122 
TABS,ioos:station:wmo:42047:1,2009-08-02T04:00:00Z,27.8966,-93.5973,1006.34,1111122 
TABS,ioos:station:wmo:42047:1,2009-08-02T04:30:00Z,27.8966,-93.5973,1006.04,1111122 
TABS,ioos:station:wmo:42047:1,2009-08-02T05:00:00Z,27.8966,-93.5973,1005.77,1111122 
TABS,ioos:station:wmo:42047:1,2009-08-02T05:30:00Z,27.8966,-93.5973,1005.57,1111122 
TABS,ioos:station:wmo:42047:1,2009-08-02T06:00:00Z,27.8966,-93.5973,1005.56,1111122 
TABS,ioos:station:wmo:42047:1,2009-08-02T06:30:00Z,27.8966,-93.5973,1005.17,1111122 
TABS,ioos:station:wmo:42047:1,2009-08-02T07:00:00Z,27.8966,-93.5973,1005.08,1111122 
TABS,ioos:station:wmo:42047:1,2009-08-02T07:30:00Z,27.8966,-93.5973,1004.84,1111122 
TABS,ioos:station:wmo:42047:1,2009-08-02T08:00:00Z,27.8966,-93.5973,1004.94,1111122 
TABS,ioos:station:wmo:42047:1,2009-08-02T08:30:00Z,27.8966,-93.5973,1004.98,1111122 
TABS,ioos:station:wmo:42047:1,2009-08-02T09:00:00Z,27.8966,-93.5973,1004.8,1111122 
TABS,ioos:station:wmo:42047:1,2009-08-02T09:30:00Z,27.8966,-93.5973,1004.79,1111122 
TABS,ioos:station:wmo:42047:1,2009-08-02T10:00:00Z,27.8966,-93.5973,1004.85,1111122 
TABS,ioos:station:wmo:42047:1,2009-08-02T10:30:00Z,27.8966,-93.5973,1005.0,1111122 
TABS,ioos:station:wmo:42047:1,2009-08-02T11:00:00Z,27.8966,-93.5973,1005.39,1111122 
TABS,ioos:station:wmo:42047:1,2009-08-02T11:30:00Z,27.8966,-93.5973,1005.39,1111122 
TABS,ioos:station:wmo:42047:1,2009-08-02T12:00:00Z,27.8966,-93.5973,1005.76,1111122 
TABS,ioos:station:wmo:42047:1,2009-08-02T12:30:00Z,27.8966,-93.5973,1006.15,1111122 
TABS,ioos:station:wmo:42047:1,2009-08-02T13:00:00Z,27.8966,-93.5973,1006.36,1111122 
TABS,ioos:station:wmo:42047:1,2009-08-02T13:30:00Z,27.8966,-93.5973,1006.8,1111122 
TABS,ioos:station:wmo:42047:1,2009-08-02T14:00:00Z,27.8966,-93.5973,1006.82,1111122 
TABS,ioos:station:wmo:42047:1,2009-08-02T14:30:00Z,27.8966,-93.5973,1006.97,1111122 
TABS,ioos:station:wmo:42047:1,2009-08-02T15:00:00Z,27.8966,-93.5973,1007.07,1111122 
TABS,ioos:station:wmo:42047:1,2009-08-02T15:30:00Z,27.8966,-93.5973,1007.0,1111122 
TABS,ioos:station:wmo:42047:1,2009-08-02T16:00:00Z,27.8966,-93.5973,1007.22,1111122 
TABS,ioos:station:wmo:42047:1,2009-08-02T16:30:00Z,27.8966,-93.5973,1007.26,1111122 
TABS,ioos:station:wmo:42047:1,2009-08-02T17:00:00Z,27.8966,-93.5973,1007.15,1111122 
TABS,ioos:station:wmo:42047:1,2009-08-02T17:30:00Z,27.8966,-93.5973,1006.88,1111122 
TABS,ioos:station:wmo:42047:1,2009-08-02T18:00:00Z,27.8966,-93.5973,1006.68,1111122 
TABS,ioos:station:wmo:42047:1,2009-08-02T18:30:00Z,27.8966,-93.5973,1006.4,1111122 
TABS,ioos:station:wmo:42047:1,2009-08-02T19:00:00Z,27.8966,-93.5973,1006.04,1111122 
TABS,ioos:station:wmo:42047:1,2009-08-02T19:30:00Z,27.8966,-93.5973,1005.72,1111122 
TABS,ioos:station:wmo:42047:1,2009-08-02T20:00:00Z,27.8966,-93.5973,1005.33,1111122 
TABS,ioos:station:wmo:42047:1,2009-08-02T20:30:00Z,27.8966,-93.5973,1004.97,1111122 
TABS,ioos:station:wmo:42047:1,2009-08-02T21:00:00Z,27.8966,-93.5973,1004.61,1111122 
TABS,ioos:station:wmo:42047:1,2009-08-02T21:30:00Z,27.8966,-93.5973,1004.22,1111122 
TABS,ioos:station:wmo:42047:1,2009-08-02T22:00:00Z,27.8966,-93.5973,1003.99,1111122 
TABS,ioos:station:wmo:42047:1,2009-08-02T22:30:00Z,27.8966,-93.5973,1003.79,1111122 
TABS,ioos:station:wmo:42047:1,2009-08-02T23:00:00Z,27.8966,-93.5973,1003.48,1111122 
TABS,ioos:station:wmo:42047:1,2009-08-02T23:30:00Z,27.8966,-93.5973,1003.19,1111122 
TABS,ioos:station:wmo:42047:1,2009-08-03T00:30:00Z,27.8966,-93.5973,1003.26,1111122 
TABS,ioos:station:wmo:42047:1,2009-08-03T01:00:00Z,27.8966,-93.5973,1003.45,1111122 
TABS,ioos:station:wmo:42047:1,2009-08-03T01:30:00Z,27.8966,-93.5973,1003.58,1111122 
TABS,ioos:station:wmo:42047:1,2009-08-03T02:00:00Z,27.8966,-93.5973,1003.69,1111122 
TABS,ioos:station:wmo:42047:1,2009-08-03T02:30:00Z,27.8966,-93.5973,1003.88,1111122 
TABS,ioos:station:wmo:42047:1,2009-08-03T03:00:00Z,27.8966,-93.5973,1004.28,1111122 
TABS,ioos:station:wmo:42047:1,2009-08-03T03:30:00Z,27.8966,-93.5973,1004.56,1111122 
TABS,ioos:station:wmo:42047:1,2009-08-03T04:00:00Z,27.8966,-93.5973,1004.65,1111122 
TABS,ioos:station:wmo:42047:1,2009-08-03T04:30:00Z,27.8966,-93.5973,1004.68,1111122 
TABS,ioos:station:wmo:42047:1,2009-08-03T05:00:00Z,27.8966,-93.5973,1004.98,1111122 
TABS,ioos:station:wmo:42047:1,2009-08-03T05:30:00Z,27.8966,-93.5973,1005.06,1111122 
TABS,ioos:station:wmo:42047:1,2009-08-03T06:00:00Z,27.8966,-93.5973,1005.14,1111122 
TABS,ioos:station:wmo:42047:1,2009-08-03T06:30:00Z,27.8966,-93.5973,1005.06,1111122 
TABS,ioos:station:wmo:42047:1,2009-08-03T07:00:00Z,27.8966,-93.5973,1005.0,1111122 
TABS,ioos:station:wmo:42047:1,2009-08-03T07:30:00Z,27.8966,-93.5973,1004.81,1111122 
TABS,ioos:station:wmo:42047:1,2009-08-03T08:00:00Z,27.8966,-93.5973,1004.71,1111122 
TABS,ioos:station:wmo:42047:1,2009-08-03T08:30:00Z,27.8966,-93.5973,1004.86,1111122 
TABS,ioos:station:wmo:42047:1,2009-08-03T09:00:00Z,27.8966,-93.5973,1005.07,1111122 
TABS,ioos:station:wmo:42047:1,2009-08-03T09:30:00Z,27.8966,-93.5973,1005.05,1111122 
TABS,ioos:station:wmo:42047:1,2009-08-03T10:00:00Z,27.8966,-93.5973,1005.08,1111122 
TABS,ioos:station:wmo:42047:1,2009-08-03T10:30:00Z,27.8966,-93.5973,1005.13,1111122 
TABS,ioos:station:wmo:42047:1,2009-08-03T11:00:00Z,27.8966,-93.5973,1005.18,1111122 
TABS,ioos:station:wmo:42047:1,2009-08-03T11:30:00Z,27.8966,-93.5973,1005.37,1111122 
TABS,ioos:station:wmo:42047:1,2009-08-03T12:00:00Z,27.8966,-93.5973,1005.53,1111122 
TABS,ioos:station:wmo:42047:1,2009-08-03T12:30:00Z,27.8966,-93.5973,1006.03,1111122 
TABS,ioos:station:wmo:42047:1,2009-08-03T13:00:00Z,27.8966,-93.5973,1006.39,1111122 
TABS,ioos:station:wmo:42047:1,2009-08-03T13:30:00Z,27.8966,-93.5973,1006.55,1111122 
TABS,ioos:station:wmo:42047:1,2009-08-03T14:00:00Z,27.8966,-93.5973,1006.53,1111122 
TABS,ioos:station:wmo:42047:1,2009-08-03T14:30:00Z,27.8966,-93.5973,1006.67,1111122 
TABS,ioos:station:wmo:42047:1,2009-08-03T15:00:00Z,27.8966,-93.5973,1006.59,1111122 
TABS,ioos:station:wmo:42047:1,2009-08-03T15:30:00Z,27.8966,-93.5973,1006.67,1111122 
TABS,ioos:station:wmo:42047:1,2009-08-03T16:00:00Z,27.8966,-93.5973,1006.54,1111122 
TABS,ioos:station:wmo:42047:1,2009-08-03T16:30:00Z,27.8966,-93.5973,1006.35,1111122 
TABS,ioos:station:wmo:42047:1,2009-08-03T17:00:00Z,27.8966,-93.5973,1005.89,1111122 
TABS,ioos:station:wmo:42047:1,2009-08-03T17:30:00Z,27.8966,-93.5973,1005.64,1111122 
TABS,ioos:station:wmo:42047:1,2009-08-03T18:00:00Z,27.8966,-93.5973,1005.23,1111122 
TABS,ioos:station:wmo:42047:1,2009-08-03T18:30:00Z,27.8966,-93.5973,1004.84,1111122 
TABS,ioos:station:wmo:42047:1,2009-08-03T19:00:00Z,27.8966,-93.5973,1004.45,1111122 
TABS,ioos:station:wmo:42047:1,2009-08-03T19:30:00Z,27.8966,-93.5973,1004.23,1111122 
TABS,ioos:station:wmo:42047:1,2009-08-03T20:00:00Z,27.8966,-93.5973,1004.08,1111122 
TABS,ioos:station:wmo:42047:1,2009-08-03T20:30:00Z,27.8966,-93.5973,1003.68,1111122 
TABS,ioos:station:wmo:42047:1,2009-08-03T21:00:00Z,27.8966,-93.5973,1003.38,1111122 
TABS,ioos:station:wmo:42047:1,2009-08-03T21:30:00Z,27.8966,-93.5973,1003.01,1111122 
TABS,ioos:station:wmo:42047:1,2009-08-03T22:00:00Z,27.8966,-93.5973,1002.86,1111122 
TABS,ioos:station:wmo:42047:1,2009-08-03T22:30:00Z,27.8966,-93.5973,1002.67,1111122 
TABS,ioos:station:wmo:42047:1,2009-08-03T23:00:00Z,27.8966,-93.5973,1002.43,1111122 
TABS,ioos:station:wmo:42047:1,2009-08-03T23:30:00Z,27.8966,-93.5973,1002.34,1111122 
TABS,ioos:station:wmo:42047:1,2009-08-04T00:00:00Z,27.8966,-93.5973,1002.29,1111122 
TABS,ioos:station:wmo:42047:1,2009-08-04T00:30:00Z,27.8966,-93.5973,1002.48,1111122 
TABS,ioos:station:wmo:42047:1,2009-08-04T01:00:00Z,27.8966,-93.5973,1002.6,1111122 
TABS,ioos:station:wmo:42047:1,2009-08-04T01:30:00Z,27.8966,-93.5973,1002.95,1111122 
TABS,ioos:station:wmo:42047:1,2009-08-04T02:00:00Z,27.8966,-93.5973,1003.28,1111122 
TABS,ioos:station:wmo:42047:1,2009-08-04T02:30:00Z,27.8966,-93.5973,1003.64,1111122 
TABS,ioos:station:wmo:42047:1,2009-08-04T03:00:00Z,27.8966,-93.5973,1004.13,1111122 
TABS,ioos:station:wmo:42047:1,2009-08-04T03:30:00Z,27.8966,-93.5973,1004.57,1111122 
TABS,ioos:station:wmo:42047:1,2009-08-04T04:00:00Z,27.8966,-93.5973,1004.87,1111122 
TABS,ioos:station:wmo:42047:1,2009-08-04T04:30:00Z,27.8966,-93.5973,1004.9,1111122 
TABS,ioos:station:wmo:42047:1,2009-08-04T05:00:00Z,27.8966,-93.5973,1004.85,1111122 
TABS,ioos:station:wmo:42047:1,2009-08-04T05:30:00Z,27.8966,-93.5973,1005.05,1111122 
TABS,ioos:station:wmo:42047:1,2009-08-04T06:00:00Z,27.8966,-93.5973,1005.15,1111122 
TABS,ioos:station:wmo:42047:1,2009-08-04T06:30:00Z,27.8966,-93.5973,1005.19,1111122 
TABS,ioos:station:wmo:42047:1,2009-08-04T07:00:00Z,27.8966,-93.5973,1005.23,1111122 
TABS,ioos:station:wmo:42047:1,2009-08-04T07:30:00Z,27.8966,-93.5973,1005.13,1111122 
TABS,ioos:station:wmo:42047:1,2009-08-04T08:00:00Z,27.8966,-93.5973,1005.02,1111122 
TABS,ioos:station:wmo:42047:1,2009-08-04T08:30:00Z,27.8966,-93.5973,1005.04,1111122 
TABS,ioos:station:wmo:42047:1,2009-08-04T09:00:00Z,27.8966,-93.5973,1005.12,1111122 
TABS,ioos:station:wmo:42047:1,2009-08-04T09:30:00Z,27.8966,-93.5973,1005.42,1111122 
TABS,ioos:station:wmo:42047:1,2009-08-04T10:00:00Z,27.8966,-93.5973,1005.55,1111122 
TABS,ioos:station:wmo:42047:1,2009-08-04T10:30:00Z,27.8966,-93.5973,1005.65,1111122 
TABS,ioos:station:wmo:42047:1,2009-08-04T11:00:00Z,27.8966,-93.5973,1005.69,1111122 
TABS,ioos:station:wmo:42047:1,2009-08-04T11:30:00Z,27.8966,-93.5973,1005.84,1111122 
TABS,ioos:station:wmo:42047:1,2009-08-04T12:00:00Z,27.8966,-93.5973,1005.83,1111122 
TABS,ioos:station:wmo:42047:1,2009-08-04T12:30:00Z,27.8966,-93.5973,1006.11,1111122 
TABS,ioos:station:wmo:42047:1,2009-08-04T13:00:00Z,27.8966,-93.5973,1006.4,1111122 
TABS,ioos:station:wmo:42047:1,2009-08-04T13:30:00Z,27.8966,-93.5973,1006.5,1111122 
TABS,ioos:station:wmo:42047:1,2009-08-04T14:00:00Z,27.8966,-93.5973,1006.57,1111122 
TABS,ioos:station:wmo:42047:1,2009-08-04T14:30:00Z,27.8966,-93.5973,1006.57,1111122 
TABS,ioos:station:wmo:42047:1,2009-08-04T15:00:00Z,27.8966,-93.5973,1006.51,1111122 
TABS,ioos:station:wmo:42047:1,2009-08-04T15:30:00Z,27.8966,-93.5973,1006.6,1111122 
TABS,ioos:station:wmo:42047:1,2009-08-04T16:00:00Z,27.8966,-93.5973,1006.67,1111122 
TABS,ioos:station:wmo:42047:1,2009-08-04T16:30:00Z,27.8966,-93.5973,1006.7,1111122 
TABS,ioos:station:wmo:42047:1,2009-08-04T17:00:00Z,27.8966,-93.5973,1006.35,1111122 
TABS,ioos:station:wmo:42047:1,2009-08-04T17:30:00Z,27.8966,-93.5973,1006.0,1111122 
TABS,ioos:station:wmo:42047:1,2009-08-04T18:00:00Z,27.8966,-93.5973,1005.45,1111122 
TABS,ioos:station:wmo:42047:1,2009-08-04T18:30:00Z,27.8966,-93.5973,1005.09,1111122 
TABS,ioos:station:wmo:42047:1,2009-08-04T19:00:00Z,27.8966,-93.5973,1004.51,1111122 
TABS,ioos:station:wmo:42047:1,2009-08-04T19:30:00Z,27.8966,-93.5973,1004.13,1111122 
TABS,ioos:station:wmo:42047:1,2009-08-04T20:00:00Z,27.8966,-93.5973,1004.02,1111122 
TABS,ioos:station:wmo:42047:1,2009-08-04T20:30:00Z,27.8966,-93.5973,1003.45,1111122 
TABS,ioos:station:wmo:42047:1,2009-08-04T21:00:00Z,27.8966,-93.5973,1003.03,1111122 
TABS,ioos:station:wmo:42047:1,2009-08-04T21:30:00Z,27.8966,-93.5973,1002.81,1111122 
TABS,ioos:station:wmo:42047:1,2009-08-04T22:00:00Z,27.8966,-93.5973,1002.55,1111122 
TABS,ioos:station:wmo:42047:1,2009-08-04T22:30:00Z,27.8966,-93.5973,1002.4,1111122 
TABS,ioos:station:wmo:42047:1,2009-08-04T23:00:00Z,27.8966,-93.5973,1002.2,1111122 
TABS,ioos:station:wmo:42047:1,2009-08-04T23:30:00Z,27.8966,-93.5973,1002.26,1111122 
TABS,ioos:station:wmo:42047:1,2009-08-05T00:00:00Z,27.8966,-93.5973,1002.21,1111122 
TABS,ioos:station:wmo:42047:1,2009-08-05T00:30:00Z,27.8966,-93.5973,1002.31,1111122 
TABS,ioos:station:wmo:42047:1,2009-08-05T01:00:00Z,27.8966,-93.5973,1002.54,1111122 
TABS,ioos:station:wmo:42047:1,2009-08-05T01:30:00Z,27.8966,-93.5973,1003.0,1111122 
TABS,ioos:station:wmo:42047:1,2009-08-05T02:00:00Z,27.8966,-93.5973,1003.25,1111122 
TABS,ioos:station:wmo:42047:1,2009-08-05T02:30:00Z,27.8966,-93.5973,1003.59,1111122 
TABS,ioos:station:wmo:42047:1,2009-08-05T03:00:00Z,27.8966,-93.5973,1004.05,1111122 
TABS,ioos:station:wmo:42047:1,2009-08-05T03:30:00Z,27.8966,-93.5973,1004.62,1111122 
TABS,ioos:station:wmo:42047:1,2009-08-05T04:00:00Z,27.8966,-93.5973,1004.85,1111122 
TABS,ioos:station:wmo:42047:1,2009-08-05T04:30:00Z,27.8966,-93.5973,1004.97,1111122 
TABS,ioos:station:wmo:42047:1,2009-08-05T05:00:00Z,27.8966,-93.5973,1005.15,1111122 
TABS,ioos:station:wmo:42047:1,2009-08-05T05:30:00Z,27.8966,-93.5973,1005.19,1111122 
TABS,ioos:station:wmo:42047:1,2009-08-05T06:00:00Z,27.8966,-93.5973,1005.06,1111122 
TABS,ioos:station:wmo:42047:1,2009-08-05T06:30:00Z,27.8966,-93.5973,1004.94,1111122 
TABS,ioos:station:wmo:42047:1,2009-08-05T07:00:00Z,27.8966,-93.5973,1004.99,1111122 
TABS,ioos:station:wmo:42047:1,2009-08-05T07:30:00Z,27.8966,-93.5973,1004.94,1111122 
TABS,ioos:station:wmo:42047:1,2009-08-05T08:00:00Z,27.8966,-93.5973,1004.91,1111122 
TABS,ioos:station:wmo:42047:1,2009-08-05T08:30:00Z,27.8966,-93.5973,1004.84,1111122 
TABS,ioos:station:wmo:42047:1,2009-08-05T09:00:00Z,27.8966,-93.5973,1004.85,1111122 
TABS,ioos:station:wmo:42047:1,2009-08-05T09:30:00Z,27.8966,-93.5973,1004.98,1111122 
TABS,ioos:station:wmo:42047:1,2009-08-05T10:00:00Z,27.8966,-93.5973,1004.95,1111122 
TABS,ioos:station:wmo:42047:1,2009-08-05T10:30:00Z,27.8966,-93.5973,1004.92,1111122 
TABS,ioos:station:wmo:42047:1,2009-08-05T11:00:00Z,27.8966,-93.5973,1005.06,1111122 
TABS,ioos:station:wmo:42047:1,2009-08-05T11:30:00Z,27.8966,-93.5973,1005.38,1111122 
TABS,ioos:station:wmo:42047:1,2009-08-05T12:00:00Z,27.8966,-93.5973,1005.94,1111122 
TABS,ioos:station:wmo:42047:1,2009-08-05T12:30:00Z,27.8966,-93.5973,1006.15,1111122 
TABS,ioos:station:wmo:42047:1,2009-08-05T13:00:00Z,27.8966,-93.5973,1006.44,1111122 
TABS,ioos:station:wmo:42047:1,2009-08-05T13:30:00Z,27.8966,-93.5973,1006.69,1111122 
TABS,ioos:station:wmo:42047:1,2009-08-05T14:00:00Z,27.8966,-93.5973,1006.62,1111122 
TABS,ioos:station:wmo:42047:1,2009-08-05T14:30:00Z,27.8966,-93.5973,1006.9,1111122 
TABS,ioos:station:wmo:42047:1,2009-08-05T15:00:00Z,27.8966,-93.5973,1006.97,1111122 
TABS,ioos:station:wmo:42047:1,2009-08-05T15:30:00Z,27.8966,-93.5973,1006.93,1111122 
TABS,ioos:station:wmo:42047:1,2009-08-05T16:00:00Z,27.8966,-93.5973,1006.81,1111122 
TABS,ioos:station:wmo:42047:1,2009-08-05T16:30:00Z,27.8966,-93.5973,1006.81,1111122 
TABS,ioos:station:wmo:42047:1,2009-08-05T17:00:00Z,27.8966,-93.5973,1006.41,1111122 
TABS,ioos:station:wmo:42047:1,2009-08-05T17:30:00Z,27.8966,-93.5973,1006.06,1111122 
TABS,ioos:station:wmo:42047:1,2009-08-05T18:00:00Z,27.8966,-93.5973,1006.07,1111122 
TABS,ioos:station:wmo:42047:1,2009-08-05T18:30:00Z,27.8966,-93.5973,1005.97,1111122 
TABS,ioos:station:wmo:42047:1,2009-08-05T19:00:00Z,27.8966,-93.5973,1005.54,1111122 
TABS,ioos:station:wmo:42047:1,2009-08-05T19:30:00Z,27.8966,-93.5973,1005.19,1111122 
TABS,ioos:station:wmo:42047:1,2009-08-05T20:00:00Z,27.8966,-93.5973,1004.69,1111122 
TABS,ioos:station:wmo:42047:1,2009-08-05T20:30:00Z,27.8966,-93.5973,1003.86,1111122 
TABS,ioos:station:wmo:42047:1,2009-08-05T21:00:00Z,27.8966,-93.5973,1003.45,1111122 
TABS,ioos:station:wmo:42047:1,2009-08-05T21:30:00Z,27.8966,-93.5973,1003.04,1111122 
TABS,ioos:station:wmo:42047:1,2009-08-05T22:00:00Z,27.8966,-93.5973,1003.38,1111122 
TABS,ioos:station:wmo:42047:1,2009-08-05T22:30:00Z,27.8966,-93.5973,1003.25,1111122 
TABS,ioos:station:wmo:42047:1,2009-08-05T23:00:00Z,27.8966,-93.5973,1003.12,1111122 
TABS,ioos:station:wmo:42047:1,2009-08-05T23:30:00Z,27.8966,-93.5973,1002.94,1111122 
TABS,ioos:station:wmo:42047:1,2009-08-06T00:00:00Z,27.8966,-93.5973,1002.64,1111122 
TABS,ioos:station:wmo:42047:1,2009-08-06T00:30:00Z,27.8966,-93.5973,1002.52,1111122 
TABS,ioos:station:wmo:42047:1,2009-08-06T01:00:00Z,27.8966,-93.5973,1002.78,1111122 
TABS,ioos:station:wmo:42047:1,2009-08-06T01:30:00Z,27.8966,-93.5973,1003.17,1111122 
TABS,ioos:station:wmo:42047:1,2009-08-06T02:00:00Z,27.8966,-93.5973,1003.71,1111122 
TABS,ioos:station:wmo:42047:1,2009-08-06T02:30:00Z,27.8966,-93.5973,1003.32,1111122 
TABS,ioos:station:wmo:42047:1,2009-08-06T03:00:00Z,27.8966,-93.5973,1003.22,1111122 
TABS,ioos:station:wmo:42047:1,2009-08-06T03:30:00Z,27.8966,-93.5973,1003.33,1111122 
TABS,ioos:station:wmo:42047:1,2009-08-06T04:00:00Z,27.8966,-93.5973,1003.74,1111122 
TABS,ioos:station:wmo:42047:1,2009-08-06T04:30:00Z,27.8966,-93.5973,1004.14,1111122 
TABS,ioos:station:wmo:42047:1,2009-08-06T05:00:00Z,27.8966,-93.5973,1004.16,1111122 
TABS,ioos:station:wmo:42047:1,2009-08-06T05:30:00Z,27.8966,-93.5973,1004.61,1111122 
TABS,ioos:station:wmo:42047:1,2009-08-06T06:00:00Z,27.8966,-93.5973,1004.57,1111122 
TABS,ioos:station:wmo:42047:1,2009-08-06T06:30:00Z,27.8966,-93.5973,1004.62,1111122 
TABS,ioos:station:wmo:42047:1,2009-08-06T07:00:00Z,27.8966,-93.5973,1004.64,1111122 
TABS,ioos:station:wmo:42047:1,2009-08-06T07:30:00Z,27.8966,-93.5973,1004.37,1111122 
TABS,ioos:station:wmo:42047:1,2009-08-06T08:00:00Z,27.8966,-93.5973,1004.26,1111122 
TABS,ioos:station:wmo:42047:1,2009-08-06T08:30:00Z,27.8966,-93.5973,1004.26,1111122 
TABS,ioos:station:wmo:42047:1,2009-08-06T09:00:00Z,27.8966,-93.5973,1004.3,1111122 
TABS,ioos:station:wmo:42047:1,2009-08-06T09:30:00Z,27.8966,-93.5973,1004.78,1111122 
TABS,ioos:station:wmo:42047:1,2009-08-06T10:00:00Z,27.8966,-93.5973,1004.85,1111122 
TABS,ioos:station:wmo:42047:1,2009-08-06T10:30:00Z,27.8966,-93.5973,1004.63,1111122 
TABS,ioos:station:wmo:42047:1,2009-08-06T11:00:00Z,27.8966,-93.5973,1004.77,1111122 
TABS,ioos:station:wmo:42047:1,2009-08-06T11:30:00Z,27.8966,-93.5973,1005.3,1111122 
TABS,ioos:station:wmo:42047:1,2009-08-06T12:00:00Z,27.8966,-93.5973,1005.57,1111122 
TABS,ioos:station:wmo:42047:1,2009-08-06T12:30:00Z,27.8966,-93.5973,1005.84,1111122 
TABS,ioos:station:wmo:42047:1,2009-08-06T13:00:00Z,27.8966,-93.5973,1005.91,1111122 
TABS,ioos:station:wmo:42047:1,2009-08-06T13:30:00Z,27.8966,-93.5973,1006.1,1111122 
TABS,ioos:station:wmo:42047:1,2009-08-06T14:00:00Z,27.8966,-93.5973,1006.12,1111122 
TABS,ioos:station:wmo:42047:1,2009-08-06T14:30:00Z,27.8966,-93.5973,1006.02,1111122 
TABS,ioos:station:wmo:42047:1,2009-08-06T15:00:00Z,27.8966,-93.5973,1006.07,1111122 
TABS,ioos:station:wmo:42047:1,2009-08-06T15:30:00Z,27.8966,-93.5973,1006.21,1111122 
TABS,ioos:station:wmo:42047:1,2009-08-06T16:00:00Z,27.8966,-93.5973,1006.12,1111122 
TABS,ioos:station:wmo:42047:1,2009-08-06T16:30:00Z,27.8966,-93.5973,1006.01,1111122 
TABS,ioos:station:wmo:42047:1,2009-08-06T17:00:00Z,27.8966,-93.5973,1006.0,1111122 
TABS,ioos:station:wmo:42047:1,2009-08-06T17:30:00Z,27.8966,-93.5973,1005.81,1111122 
TABS,ioos:station:wmo:42047:1,2009-08-06T18:00:00Z,27.8966,-93.5973,1005.58,1111122 
TABS,ioos:station:wmo:42047:1,2009-08-06T18:30:00Z,27.8966,-93.5973,1005.12,1111122 
TABS,ioos:station:wmo:42047:1,2009-08-07T00:00:00Z,27.8966,-93.5973,1002.21,1111122 
TABS,ioos:station:wmo:42047:1,2009-08-07T00:30:00Z,27.8966,-93.5973,1002.27,1111122 
TABS,ioos:station:wmo:42047:1,2009-08-07T01:00:00Z,27.8966,-93.5973,1002.17,1111122 
TABS,ioos:station:wmo:42047:1,2009-08-07T15:00:00Z,27.8966,-93.5973,1006.14,1111122 
TABS,ioos:station:wmo:42047:1,2009-08-07T15:30:00Z,27.8966,-93.5973,1006.21,1111122 
TABS,ioos:station:wmo:42047:1,2009-08-07T16:00:00Z,27.8966,-93.5973,1006.23,1111122 
TABS,ioos:station:wmo:42047:1,2009-08-07T16:30:00Z,27.8966,-93.5973,1006.14,1111122 